Flag for United Arab Emirates Weather past 2 weeks in Abu Dhabi, Abu Dhabi, United Arab Emirates

Now
88 °F

Clear.


Feels Like: 108 °F
Forecast: 95 / 103 °F
Wind: 2 mph from North

Location: Abu Dhabi Bateen Airport

Current Time: Jul 3, 2015 at 7:01:36 AM

Latest Report: Jul 3, 2015 at 6:00 AM


Visibility: 4 mi

Pressure: 29.56 "Hg

Humidity: 84%

Dew point: 82 °F

Location of Abu DhabiLocation

Historic Weather in Abu Dhabi — Graph

°F

Abu Dhabi temperature yesterday

Maximum temperature yesterday: 108 °F (at 2:00 PM)
Minimum temperature yesterday: 90 °F (at 2:00 AM)
Average temperature yesterday: 95 °F

Past Weeks' High & Low Weather Summary

 TemperatureHumidityPressure
High108 °F (Jun 19, 1:00 PM)94% (Jun 18, 6:00 AM)29.65 "Hg (Jun 18, 6:00 AM)
Low84 °F (Jun 24, 6:00 AM)13% (Jun 28, 12:00 PM)29.36 "Hg (Jun 20, 3:00 PM)
Average95 °F51%29.50 "Hg
* Reported Jun 18 6:00 AM — Jul 3 6:00 AM, Abu Dhabi, Weather by CustomWeather, © 2015

Note: Actual official high and low records may vary slightly from our data, if they occured in-between our weather recording intervals... More about our weather records

Advertising

Abu Dhabi weather history for previous 24 hours

 ConditionsComfort  
Time TempWeatherWind HumidityBarometerVisibility
6:00 AM
Fri, Jul 3
88 °FClear.2 mph84%29.56 "Hg4 mi
5:00 AM88 °FClear.3 mph79%29.56 "Hg5 mi
4:00 AM88 °FClear.2 mph84%29.56 "Hg4 mi
3:00 AM88 °FClear.7 mph89%29.53 "Hg4 mi
2:00 AM90 °FClear.3 mph79%29.53 "Hg4 mi
1:00 AM91 °FClear.2 mph67%29.56 "Hg4 mi
12:00 AM90 °FClear.3 mph75%29.56 "Hg4 mi
11:00 PM
Thu, Jul 2
90 °FClear.1 mph79%29.59 "Hg4 mi
10:00 PM90 °FClear.5 mph84%29.59 "Hg4 mi
9:00 PM91 °FClear.3 mph80%29.56 "Hg4 mi
8:00 PM91 °FClear.7 mph75%29.53 "Hg4 mi
7:00 PM93 °FClear.7 mph71%29.53 "Hg5 mi
6:00 PM95 °FClear.10 mph67%29.53 "Hg5 mi
5:00 PM97 °FPassing clouds.10 mph63%29.53 "HgN/A
4:00 PM99 °FClear.12 mph60%29.53 "Hg5 mi
3:00 PM102 °FClear.14 mph48%29.53 "Hg5 mi
2:00 PM108 °FClear.12 mph28%29.56 "Hg5 mi
1:00 PM106 °FClear.9 mph30%29.56 "Hg5 mi
12:00 PM106 °FClear.7 mph26%29.59 "Hg5 mi
11:00 AM104 °FClear.6 mph29%29.59 "Hg4 mi
10:00 AM99 °FClear.6 mph33%29.59 "Hg4 mi
9:00 AM95 °FClear.13 mph39%29.59 "Hg4 mi
8:00 AM93 °FClear.12 mph41%29.59 "Hg5 mi
7:00 AM90 °FClear.2 mph67%29.59 "Hg5 mi
Weather by CustomWeather, © 2015

See weather overviewHow to use our weather pages